Simultaneous Nadir Overpasses (SNOs) Predictions

Prediction of SNOs between FY3D and NOAA-19 Satellite Orbit:

Table of predicted SNOs for the next 14.0 days since TLE Epoch: 4/2/2022
Index Date (FY3D) Time (FY3D) Lat,Lon (FY3D) SZA (FY3D ) Date (NOAA-19) Time (NOAA-19) Lat,Lon (NOAA-19) SZA (NOAA-19 ) Distance(km) Time Diff (sec)
1 04/02/2022 14:44:06 -77.63, 121.01 106.83 04/02/2022 14:42:52 -77.61, 120.36 106.77 15.80 74
2 04/02/2022 15:34:54 77.68, -71.94 73.23 04/02/2022 15:33:45 77.68, -71.99 73.26 1.22 69
3 04/02/2022 16:25:39 -77.69, 95.32 106.77 04/02/2022 16:24:50 -77.69, 95.28 106.76 1.02 49
4 04/02/2022 17:16:26 77.70, -97.43 73.23 04/02/2022 17:15:45 77.68, -97.48 73.23 2.48 41
5 04/02/2022 18:07:11 -77.72, 69.83 106.77 04/02/2022 18:06:50 -77.69, 69.79 106.78 2.82 21
6 04/02/2022 18:57:58 77.73,-122.93 73.24 04/02/2022 18:57:44 77.73,-122.76 73.23 3.96 14
7 04/02/2022 19:48:42 -77.70, 44.53 106.82 04/02/2022 19:48:49 -77.73, 44.51 106.79 3.84 7
8 04/02/2022 20:39:29 77.71,-148.22 73.19 04/02/2022 20:39:44 77.73,-148.25 73.20 1.93 15
9 04/02/2022 21:30:14 -77.72, 19.04 106.82 04/02/2022 21:30:49 -77.73, 19.02 106.82 1.47 35
10 04/02/2022 22:21:01 77.73,-173.71 73.19 04/02/2022 22:21:44 77.73,-173.74 73.17 0.93 43
11 04/02/2022 23:11:46 -77.74, -6.45 106.82 04/02/2022 23:12:49 -77.74, -6.47 106.84 1.03 63
12 04/03/2022 00:02:33 77.76, 160.79 73.19 04/03/2022 00:03:44 77.73, 160.77 73.14 3.20 71



Historial Predications of SNOs between FY3D and NOAA-19
